GW3657 Weather Reports


time (UTC)temp
C
wind
direction
speed
KPH
gust
KPH
rain 1hr
cm
rain 24hr
cm
rain mn
cm
humidity
%
barometer
mb
20260508031553 10 189 0.0 0.0 0.00 0.00 0.00 91 1014.3
20260508030051 10 0 0.0 0.0 0.00 0.00 0.00 91 1014.2
20260508024554 10 0 0.0 0.0 0.00 0.00 0.00 91 1014.3
20260508023048 10 0 0.0 0.0 0.00 0.00 0.00 91 1014.2
20260508021544 10 0 0.0 1.6 0.00 0.00 0.00 90 1014.3
20260508020048 11 0 0.0 4.8 0.00 0.00 0.00 90 1014.3
20260508014550 11 217 1.6 4.8 0.00 0.00 0.00 90 1014.1
20260508013056 11 248 0.0 0.0 0.00 0.00 0.00 90 1014.3
20260508011549 11 0 0.0 0.0 0.00 0.00 0.00 90 1014.3
20260508010053 11 0 0.0 0.0 0.00 0.00 0.00 89 1014.3
20260508004546 11 0 0.0 0.0 0.00 0.00 0.00 88 1014.4
20260508003045 11 0 0.0 0.0 0.00 0.00 0.00 87 1014.3
20260508001549 11 0 0.0 0.0 0.00 0.00 0.00 87 1014.3
20260508000048 12 0 0.0 0.0 0.00 0.00 0.00 85 1014.3
20260507234551 11 0 0.0 0.0 0.00 0.10 0.00 87 1014.5
20260507233047 12 0 0.0 0.0 0.00 0.10 0.00 85 1014.7
20260507231542 12 0 0.0 0.0 0.00 0.10 0.00 86 1014.8
20260507230046 12 0 0.0 0.0 0.00 0.10 0.00 83 1014.6
20260507224549 13 0 0.0 0.0 0.00 0.15 0.00 81 1014.6
20260507223050 13 0 0.0 0.0 0.00 0.15 0.00 82 1014.6
20260507221545 13 0 0.0 0.0 0.00 0.15 0.00 82 1014.5
20260507220049 13 0 0.0 0.0 0.00 0.15 0.00 81 1014.4
20260507214550 13 344 0.0 6.4 0.00 0.18 0.15 81 1014.2
20260507213050 13 0 0.0 0.0 0.00 0.18 0.15 79 1014.1
20260507211547 14 0 1.6 8.0 0.00 0.18 0.15 77 1014.0
20260507210049 14 156 1.6 6.4 0.00 0.18 0.15 77 1013.9
20260507204552 15 9 1.6 8.0 0.00 0.18 0.15 75 1013.9
20260507203044 15 119 4.8 12.9 0.00 0.18 0.15 76 1013.9
20260507201550 15 176 3.2 19.3 0.00 0.18 0.15 76 1013.9
20260507200052 15 139 3.2 8.0 0.00 0.18 0.15 76 1013.6
20260507194550 15 0 0.0 4.8 0.00 0.18 0.15 76 1013.5
20260507193047 15 207 3.2 8.0 0.00 0.18 0.15 75 1013.3
20260507191608 15 294 1.6 6.4 0.00 0.18 0.15 72 1013.0
20260507190045 16 350 0.0 11.3 0.00 0.18 0.15 66 1012.7
20260507184557 16 133 8.0 24.1 0.00 0.18 0.15 66 1012.6
20260507183047 16 142 11.3 22.5 0.00 0.18 0.15 66 1012.6
20260507181546 16 142 11.3 22.5 0.00 0.18 0.15 65 1012.4
20260507180046 17 88 11.3 24.1 0.00 0.18 0.15 65 1012.4
20260507174548 17 160 11.3 25.7 0.00 0.41 0.15 63 1012.2
20260507173053 17 134 14.5 25.7 0.00 0.41 0.15 60 1012.2
20260507171549 18 177 12.9 25.7 0.00 0.41 0.15 60 1012.2
20260507170050 18 97 11.3 25.7 0.00 0.41 0.15 61 1012.1
20260507164559 18 144 14.5 22.5 0.00 0.56 0.15 58 1012.1
20260507163044 19 122 9.7 22.5 0.00 0.56 0.15 59 1012.1
20260507161549 18 126 11.3 24.1 0.00 0.56 0.15 65 1012.0
20260507160052 18 133 14.5 24.1 0.00 0.56 0.15 65 1012.0
20260507154547 19 105 12.9 22.5 0.00 0.99 0.15 65 1012.0
20260507153050 19 154 11.3 19.3 0.00 0.99 0.15 61 1011.9
20260507151546 20 165 8.0 14.5 0.00 0.99 0.15 61 1011.9
20260507150048 20 109 4.8 12.9 0.00 0.99 0.15 56 1011.9
20260507144547 20 82 3.2 12.9 0.00 0.99 0.15 57 1011.9
20260507143100 20 135 8.0 17.7 0.00 0.99 0.15 55 1012.0
20260507141607 20 0 4.8 9.7 0.00 0.99 0.15 56 1012.1
20260507140053 20 311 3.2 12.9 0.00 0.99 0.15 57 1012.3
20260507134555 20 55 1.6 16.1 0.00 0.99 0.15 60 1012.5
20260507133046 20 0 1.6 8.0 0.00 0.99 0.15 56 1012.8
20260507131557 19 69 4.8 14.5 0.00 0.99 0.15 58 1012.8
20260507130047 18 56 6.4 14.5 0.00 0.99 0.15 63 1012.9
20260507124542 18 313 8.0 16.1 0.00 0.99 0.15 61 1013.0
20260507123050 18 98 6.4 19.3 0.00 0.99 0.15 62 1013.1
20260507121545 18 340 3.2 9.7 0.00 0.99 0.15 61 1013.3
20260507120045 17 27 3.2 14.5 0.00 0.99 0.15 64 1013.5
20260507114551 17 275 8.0 14.5 0.00 0.99 0.15 65 1013.6
20260507113048 17 185 0.0 9.7 0.00 0.99 0.15 64 1013.7
20260507111547 17 53 4.8 17.7 0.00 0.99 0.15 67 1013.8
20260507110050 17 110 1.6 12.9 0.00 0.99 0.15 68 1014.1
20260507104557 16 325 4.8 17.7 0.00 0.99 0.15 70 1014.1
20260507103043 16 313 11.3 14.5 0.00 0.99 0.15 70 1014.2
20260507101550 16 19 4.8 16.1 0.00 0.99 0.15 70 1014.2
20260507100054 16 82 6.4 12.9 0.00 0.99 0.15 74 1014.2
20260507094549 16 5 0.0 6.4 0.00 0.99 0.15 74 1014.3
20260507093044 15 322 1.6 8.0 0.00 0.99 0.15 78 1014.3
20260507091548 14 295 1.6 4.8 0.00 0.99 0.15 81 1014.4
20260507090057 13 137 0.0 6.4 0.00 0.99 0.15 84 1014.2
20260507084552 13 233 3.2 8.0 0.00 0.99 0.15 85 1014.3
20260507083046 13 293 0.0 6.4 0.00 0.99 0.15 87 1014.1
20260507081553 13 269 3.2 6.4 0.00 0.99 0.15 87 1014.1
20260507080041 12 0 0.0 0.0 0.00 0.99 0.15 89 1014.0
20260507074545 12 0 0.0 0.0 0.00 0.99 0.15 90 1014.0
20260507073044 12 0 0.0 0.0 0.00 0.99 0.15 91 1014.0
20260507071542 12 0 0.0 4.8 0.00 0.99 0.15 92 1013.9
20260507070047 11 9 4.8 8.0 0.00 0.99 0.15 92 1013.8
20260507064613 11 5 3.2 6.4 0.00 0.99 0.15 92 1013.7
20260507063044 11 15 3.2 8.0 0.00 0.99 0.15 92 1013.6
20260507061547 11 24 3.2 6.4 0.00 0.99 0.15 93 1013.6
20260507060108 12 348 1.6 6.4 0.00 0.99 0.15 93 1013.4
20260507054554 12 0 0.0 0.0 0.00 1.02 0.15 93 1013.3
20260507053044 11 0 0.0 0.0 0.00 1.02 0.15 92 1013.0
20260507051559 11 0 0.0 0.0 0.00 1.02 0.15 92 1012.5
20260507050050 11 0 0.0 0.0 0.00 1.02 0.15 92 1012.3
20260507044543 11 0 0.0 0.0 0.00 1.02 0.15 91 1012.3
20260507043045 11 0 0.0 1.6 0.00 1.02 0.15 92 1012.1
20260507041544 11 326 0.0 4.8 0.00 1.02 0.15 91 1012.0
20260507040049 11 300 1.6 4.8 0.00 1.02 0.15 90 1011.9
20260507034549 11 263 4.8 9.7 0.00 1.02 0.15 90 1012.0
20260507033051 12 280 4.8 8.0 0.00 1.02 0.15 90 1011.9